Orbital Elements at Epoch 2459000.5 (2020-May-31.0) TDB
Reference: JPL 7 (heliocentric ecliptic J2000)
Element | Value | Uncertainty (1-sigma) | Units |
e | .3908226039976931 | 0.00027668 | |
a | 1.54798829115359 | 0.00065893 | au |
q | .9429994762470049 | 2.6965e-05 | au |
i | 5.246305222846961 | 0.0029672 | deg |
node | 69.6592732532384 | 0.00031998 | deg |
peri | 323.1941207123066 | 0.0022783 | deg |
M | 294.5345764055904 | 0.18873 | deg |
tp | 2459128.426175256577 (2020-Oct-05.92617526) | 0.45048 | TDB |
period | 703.4770503845066 1.93 | 0.44917 0.00123 | d yr |
n | .5117437730246227 | 0.00032675 | deg/d |
Q | 2.152977106060176 | 0.00091645 | au |
|
| | Orbit Determination Parameters
Additional Information
|